全球星 M049星 (GLOBALSTAR M049)

导读 | 豆包AI

GLOBALSTAR M049是全球星星座的一颗通信卫星,由美国全球星公司主导,于1999年6月10日在美国卡纳维拉尔角空军基地,由德尔塔7420-10C火箭发射升空。该卫星运行在倾角52.0°、近地点约2097千米、远地点约2103千米的低地球轨道,属于全球星星座第一代低轨通信卫星,旨在为全球范围提供语音与数据通信服务,尤其满足偏远地区、海洋等区域的通信需求。

基本信息
目录编号:
25771
目录名称:
GLOBALSTAR M049
国际标识:
1999-031B
轨道中心:
EARTH
卫星名称:
全球星 M049星
卫星全名:
全球星 M049星 (GLOBALSTAR M049)
卫星状态:
在轨 (已飞行9774 天)
发射日期:
1999-06-10 UTC
国别 :
(GLOB)
星等 :
--
轨道信息
数据来源 国际轨道数据 AOE轨道数据
星历时间 2026-03-13T23:12:08+0800
12小时前
查看轨道信息
2026-03-12T21:00:00+0800
1天前
查看轨道信息
半长轴 8478.133km 8478.101km
偏心率 0.0003406 0.0003052
轨道倾角 51.988° 51.988°
近地点辐角 105.848° 91.268°
升交点赤经 303.384° 305.857°
平近点角 254.270° 216.031°
近地点 2097.108km 2097.376km
远地点 2102.884km 2102.552km
周期 129.482分钟 129.481分钟
每日圈数 11.12122 11.121284
详细信息
固有亮度:
5
最大亮度:
7.9
平衡模式:
三轴稳定
覆盖范围:
全球
运营商:
全球星公司
运营商所在国:
美国
使用方式:
暂无
卫星简介
全球星星座由48颗卫星加8颗备份星组成。这些卫星分布在8个倾角为52度的圆形轨道平面上,每个轨道平面6颗卫星,另有1 颗备用星。轨道高度约为1414km,传输时延和处理时延小于300ms,整个系统的覆盖区为南北纬70度以内的地区。该卫星已退役。
2D轨道图
3D轨道图
轨道高度分析图
轨道倾角分析图
轨道综合分析图
查看轨道综合分析图